Location: Newark
(52.4787°S, 179.0532°W)
Time: 07:37:33
(UTC+00:00)

Transit 2A Rocket - Pass Details

Date: 27 November 2019
Orbit: 594 x 909 km, 66.7° (Epoch: 15 December)

Event Time Altitude Azimuth Distance (km) Brightness Sun altitude
Rises 17:46:50 0° 31° (NNE) 3,361 8.6 17.1°
Reaches altitude 10° 17:51:08 10° 63° (ENE) 2,509 8.6 17.7°
Maximum altitude 17:52:56 11° 81° (E) 2,433 9.2 18.0°
Drops below altitude 10° 17:54:45 10° 99° (E) 2,564 10.3 18.3°
Sets 17:59:17 0° 129° (SE) 3,555 9.5 18.9°
